Location: Newark
(50.0953°N, 2.1719°E)
Time: 07:10:34
(UTC+00:00)

N. Korean satellite - Pass Details

Date: 29 January 2020
Orbit: 456 x 505 km, 97.2° (Epoch: 20 February)

Event Time Altitude Azimuth Distance (km) Brightness Sun altitude
Rises 05:32:39 0° 16° (NNE) 2,549 10.4 -18.8°
Reaches altitude 10° 05:34:45 10° 21° (NNE) 1,673 9.4 -18.4°
Maximum altitude 05:38:17 57° 100° (E) 584 7.2 -17.9°
Drops below altitude 10° 05:41:52 10° 180° (S) 1,686 9.4 -17.3°
Sets 05:43:59 0° 185° (S) 2,571 10.3 -17.0°
